Weather History for Rayong, Thailand

Change the Weather History Date:

Saturday, December 21, 2013

  Actual Average Record
Temperature  
Mean Temperature 73 °F -  
Max Temperature 84 °F 86 °F 93 °F (2012)
Min Temperature 62 °F 71 °F 35 °F (2003)
Cooling Degree Days 8    
Growing Degree Days 23 (Base 50)    
Moisture  
Dew Point 56 °F    
Average Humidity 59    
Maximum Humidity 88    
Minimum Humidity 32    
Precipitation  
Precipitation 0.00 in 0.03 in - ()
Sea Level Pressure  
Sea Level Pressure 29.96 in    
Wind  
Wind Speed 6 mph ()    
Max Wind Speed 12 mph    
Max Gust Speed -    
Visibility 4.0 miles    
Events      
Averages and records for this station are not official NWS values.
T = Trace of Precipitation, MM = Missing Value Source: Averaged Metar Reports

Daily Weather History Graph

Daily Weather History Graph

Search for Another Location

Airport:

Trip Planner

Search our weather history database for the weather conditions in past years. The results will help you decide how hot, cold, wet, or windy it might be!

Date:

Astronomy

Dec. 21, 2013 Rise Set
Actual Time 6:32 AM ICT 5:55 PM ICT
Civil Twilight 6:09 AM ICT 6:18 PM ICT
Nautical Twilight 5:42 AM ICT 6:45 PM ICT
Astronomical Twilight 5:16 AM ICT 7:11 PM ICT
Moon 9:10 PM ICT 9:10 AM ICT
Length of Visible Light 12h 09m
Length of Day
11h 22m
Waning Gibbous, 87% of the Moon is Illuminated
Dec 21
Waning Gibbous
Dec 25
Last Quarter
Jan 1
New
Jan 8
First Quarter
Jan 16
Full

Hourly Weather History & Observations

Time (ICT) Temp. Heat Index Dew Point Humidity Pressure Visibility Wind Dir Wind Speed Gust Speed Precip Events Conditions
12:00 AM 64.4 °F - 57.2 °F 77% 29.95 in 3.1 mi NNW 4.6 mph - N/A   Mist
12:30 AM 64.4 °F - 57.2 °F 77% 29.95 in 3.1 mi NNE 3.5 mph - N/A   Mist
1:00 AM 66 °F - 60 °F 76% 29.96 in 5 mi NNW 3.5 mph - -   Mist
1:00 AM 64.4 °F - 57.2 °F 77% 29.95 in 3.1 mi NNE 2.3 mph - N/A   Mist
1:30 AM 66.2 °F - 57.2 °F 73% 29.95 in 3.1 mi North 4.6 mph - N/A   Mist
2:00 AM 64.4 °F - 59.0 °F 83% 29.95 in 3.1 mi North 4.6 mph - N/A   Mist
2:30 AM 66.2 °F - 57.2 °F 73% 29.95 in 3.1 mi North 4.6 mph - N/A   Mist
3:00 AM 62.6 °F - 59.0 °F 88% 29.95 in 3.1 mi NNW 9.2 mph - N/A   Mist
4:00 AM 64 °F - 59 °F 79% 29.96 in 5 mi Calm Calm - -   Mist
5:00 AM 62.6 °F - 57.2 °F 82% 29.95 in 3.1 mi NNW 4.6 mph - N/A   Mist
5:30 AM 62.6 °F - 55.4 °F 77% 29.95 in 3.1 mi North 4.6 mph - N/A   Mist
6:00 AM 62.6 °F - 55.4 °F 77% 29.98 in 3.1 mi NNW 9.2 mph - N/A   Mist
6:30 AM 62.6 °F - 55.4 °F 77% 29.98 in 3.1 mi NNW 9.2 mph - N/A   Mist
7:00 AM 64 °F - 59 °F 77% 29.98 in 6 mi Calm Calm - -   Clear
7:00 AM 62.6 °F - 55.4 °F 77% 29.98 in 3.1 mi North 9.2 mph - N/A   Mist
7:30 AM 62.6 °F - 55.4 °F 77% 29.98 in 3.1 mi North 9.2 mph - N/A   Mist
8:00 AM 66.2 °F - 55.4 °F 68% 30.01 in 3.1 mi North 9.2 mph - N/A   Mist
8:30 AM 68.0 °F - 55.4 °F 64% 30.01 in 3.1 mi North 9.2 mph - N/A   Haze
9:00 AM 71.6 °F - 55.4 °F 57% 30.01 in 3.1 mi North 9.2 mph - N/A   Haze
10:00 AM 76 °F - 60 °F 48% 30.02 in 7 mi ENE 3.5 mph - -   Clear
10:00 AM 77.0 °F - 55.4 °F 47% 30.01 in 3.7 mi North 11.5 mph - N/A   Unknown
10:30 AM 77.0 °F - 55.4 °F 47% 30.01 in 3.7 mi North 11.5 mph - N/A   Unknown
11:00 AM 77.0 °F - 53.6 °F 44% 30.01 in 3.7 mi North 11.5 mph - N/A   Unknown
11:30 AM 78.8 °F - 55.4 °F 44% 30.01 in 4.3 mi North 9.2 mph - N/A   Unknown
12:00 PM 80.6 °F 80.5 °F 55.4 °F 42% 30.01 in 4.3 mi NNE 11.5 mph - N/A   Unknown
12:30 PM 80.6 °F 80.5 °F 55.4 °F 42% 29.98 in 4.3 mi North 11.5 mph - N/A   Unknown
1:00 PM 82 °F - 57 °F 32% 29.97 in 7 mi Calm Calm - -   Clear
1:00 PM 80.6 °F 80.3 °F 53.6 °F 39% 29.98 in 5.0 mi NNE 11.5 mph - N/A   Unknown
1:30 PM 80.6 °F - 51.8 °F 37% 29.95 in 5.0 mi North 11.5 mph - N/A   Unknown
2:00 PM 82.4 °F - 51.8 °F 35% 29.95 in 5.0 mi North 11.5 mph - N/A   Unknown
2:30 PM 84.2 °F 82.8 °F 53.6 °F 35% 29.92 in 5.0 mi NNE 11.5 mph - N/A   Unknown
3:00 PM 82.4 °F - 51.8 °F 35% 29.92 in 5.0 mi North 9.2 mph - N/A   Unknown
3:30 PM 80.6 °F - 51.8 °F 37% 29.92 in 5.0 mi North 9.2 mph - N/A   Unknown
4:00 PM 81 °F - 56 °F 32% 29.91 in 7 mi Calm Calm - -   Clear
4:00 PM 82.4 °F 81.7 °F 55.4 °F 39% 29.89 in 5.0 mi North 9.2 mph - N/A   Unknown
4:30 PM 82.4 °F 81.4 °F 53.6 °F 37% 29.89 in 5.0 mi North 11.5 mph - N/A   Unknown
5:00 PM 82.4 °F 81.4 °F 53.6 °F 37% 29.89 in 5.0 mi North 9.2 mph - N/A   Unknown
5:30 PM 78.8 °F - 55.4 °F 44% 29.92 in 4.3 mi NNE 4.6 mph - N/A   Unknown
6:00 PM 77.0 °F - 55.4 °F 47% 29.92 in 3.7 mi NE 4.6 mph - N/A   Unknown
6:30 PM 77.0 °F - 55.4 °F 47% 29.92 in 3.7 mi NE 3.5 mph - N/A   Unknown
7:00 PM 71 °F - 62 °F 65% 29.94 in 6 mi Calm Calm - -   Clear
7:00 PM 73.4 °F - 57.2 °F 57% 29.95 in 3.7 mi North 4.6 mph - N/A   Unknown
7:30 PM 71.6 °F - 55.4 °F 57% 29.95 in 3.7 mi North 5.8 mph - N/A   Unknown
8:00 PM 69.8 °F - 59.0 °F 68% 29.95 in 3.1 mi North 4.6 mph - N/A   Mist
8:30 PM 69.8 °F - 57.2 °F 64% 29.98 in 3.1 mi North 5.8 mph - N/A   Mist
9:00 PM 68.0 °F - 57.2 °F 68% 29.98 in 3.1 mi North 5.8 mph - N/A   Mist
9:30 PM 68.0 °F - 57.2 °F 68% 29.98 in 3.1 mi North 5.8 mph - N/A   Mist
10:00 PM 67 °F - 59 °F 70% 29.98 in 5 mi Calm Calm - -   Mist
10:00 PM 68.0 °F - 55.4 °F 64% 29.98 in 3.1 mi North 6.9 mph - N/A   Mist
10:30 PM 66.2 °F - 55.4 °F 68% 29.98 in 3.1 mi North 5.8 mph - N/A   Mist
11:00 PM 66.2 °F - 55.4 °F 68% 29.98 in 3.1 mi North 6.9 mph - N/A   Mist
11:30 PM 66.2 °F - 53.6 °F 64% 29.98 in 2.5 mi North 9.2 mph - N/A   Mist